Location: Kosice
(0.0000°N, 21.2500°E)
Time: 18:39:50
(UTC+01:00)

NOSS 3-3 (A) - Pass Details

Date: 24 January 2021
Orbit: 813 x 1399 km, 63.4° (Epoch: 28 February)

Event Time Altitude Azimuth Distance (km) Brightness Sun altitude
Rises 19:41:46 0° 205° (SSW) 3,393 7.5 -26.9°
Reaches altitude 10° 19:44:15 10° 206° (SSW) 2,423 6.6 -27.5°
Enters shadow 19:49:33 79° 259° (WSW) 827 3.6 -28.7°
